DLH2HL EDDM-EDDH

Flight info

Callsign DLH2HL
Flight time 1h 11m
Altitude 36000
Route INPUD3Q/08L INPUD Y102 UPALA M726 NARUS DCT ABGUS DCT DIRBO/N0358F230 T902 RARUP RARUP6A
Aircraft A320/M-SDE2E3FGIJ1LORWXYZ/HB1

Departure

Time 2026-04-30 18:27
Airport Munich Airport (EDDM)

Arrival

Time 2026-04-30 19:38
Airport Hamburg Helmut Schmidt Airport (EDDH)
Time Latitude Longitude Altitude Speed Heading
2026-04-30 17:57 48.35594 11.79273 1486 ft 0 kts 263°
2026-04-30 18:16 48.35598 11.79311 1476 ft 5 kts 263°
2026-04-30 18:16 48.35608 11.79404 1478 ft 3 kts 245°
2026-04-30 18:17 48.35614 11.79420 1478 ft 2 kts 202°
2026-04-30 18:17 48.35625 11.79424 1474 ft 2 kts 175°
2026-04-30 18:17 48.35632 11.79423 1479 ft 0 kts 174°
2026-04-30 18:19 48.35615 11.79431 1482 ft 6 kts 147°
2026-04-30 18:20 48.35640 11.79489 1483 ft 10 kts 12°
2026-04-30 18:20 48.35702 11.79484 1475 ft 8 kts 353°
2026-04-30 18:20 48.35718 11.79481 1480 ft 0 kts 352°
2026-04-30 18:21 48.35719 11.79480 1481 ft 1 kts 352°
2026-04-30 18:21 48.35780 11.79468 1485 ft 17 kts 354°
2026-04-30 18:21 48.35804 11.79463 1481 ft 0 kts 352°
2026-04-30 18:22 48.35806 11.79463 1475 ft 2 kts 352°
2026-04-30 18:22 48.35885 11.79429 1479 ft 7 kts 319°
2026-04-30 18:22 48.35945 11.79344 1480 ft 15 kts 341°
2026-04-30 18:23 48.35983 11.79335 1478 ft 4 kts 353°
2026-04-30 18:23 48.36001 11.79332 1482 ft 1 kts 354°
2026-04-30 18:23 48.36044 11.79324 1479 ft 12 kts 353°
2026-04-30 18:23 48.36153 11.79305 1473 ft 20 kts 351°
2026-04-30 18:24 48.36164 11.78830 1473 ft 32 kts 264°
2026-04-30 18:24 48.36138 11.78487 1476 ft 33 kts 263°
2026-04-30 18:24 48.36109 11.78131 1485 ft 35 kts 264°
2026-04-30 18:25 48.36086 11.77807 1485 ft 24 kts 263°
2026-04-30 18:25 48.36233 11.77878 1479 ft 23 kts 54°
2026-04-30 18:25 48.36331 11.78064 1482 ft 21 kts 39°
2026-04-30 18:26 48.36429 11.78751 1477 ft 87 kts 83°
2026-04-30 18:26 48.36525 11.79971 1473 ft 144 kts 84°
2026-04-30 18:26 48.36646 11.81568 1951 ft 156 kts 84°
2026-04-30 18:27 48.36897 11.84896 3217 ft 174 kts 82°
2026-04-30 18:27 48.37468 11.86601 3552 ft 202 kts 44°
2026-04-30 18:28 48.40629 11.87418 4549 ft 263 kts 355°
2026-04-30 18:28 48.42313 11.86284 5430 ft 278 kts 323°
2026-04-30 18:28 48.44839 11.81724 7391 ft 284 kts 311°
2026-04-30 18:29 48.46200 11.79550 8300 ft 287 kts 323°
2026-04-30 18:29 48.51563 11.75400 10763 ft 303 kts 338°
2026-04-30 18:30 48.55670 11.72407 11333 ft 350 kts 337°
2026-04-30 18:30 48.60159 11.69039 12629 ft 365 kts 337°
2026-04-30 18:31 48.62417 11.67324 13400 ft 369 kts 337°
2026-04-30 18:31 48.67106 11.64001 14830 ft 371 kts 348°
2026-04-30 18:32 48.72171 11.62922 16178 ft 371 kts 358°
2026-04-30 18:32 48.74755 11.62489 16868 ft 374 kts 358°
2026-04-30 18:32 48.79962 11.61623 18169 ft 378 kts 358°
2026-04-30 18:33 48.82581 11.61186 18799 ft 381 kts 358°
2026-04-30 18:33 48.87891 11.60294 19929 ft 385 kts 358°
2026-04-30 18:33 48.90566 11.59839 20484 ft 387 kts 358°
2026-04-30 18:34 48.93256 11.59381 21018 ft 390 kts 358°
2026-04-30 18:34 48.98653 11.58467 22094 ft 394 kts 358°
2026-04-30 18:34 49.01387 11.58003 22613 ft 397 kts 358°
2026-04-30 18:35 49.04146 11.57531 23125 ft 399 kts 358°
2026-04-30 18:35 49.06917 11.57055 23620 ft 401 kts 357°
2026-04-30 18:35 49.09706 11.56575 24101 ft 403 kts 358°
2026-04-30 18:36 49.15285 11.55619 24866 ft 408 kts 358°
2026-04-30 18:36 49.18109 11.55135 25256 ft 410 kts 358°
2026-04-30 18:36 49.23653 11.54187 26024 ft 413 kts 358°
2026-04-30 18:37 49.26523 11.53693 26409 ft 415 kts 358°
2026-04-30 18:37 49.29405 11.53198 26770 ft 417 kts 358°
2026-04-30 18:37 49.32293 11.52700 27134 ft 419 kts 359°
2026-04-30 18:37 49.35200 11.52197 27482 ft 421 kts 359°
2026-04-30 18:38 49.38121 11.51689 27824 ft 423 kts 359°
2026-04-30 18:38 49.41060 11.51179 28159 ft 425 kts 359°
2026-04-30 18:38 49.44009 11.50670 28503 ft 427 kts 359°
2026-04-30 18:38 49.46941 11.50160 28831 ft 429 kts 359°
2026-04-30 18:39 49.49912 11.49639 29149 ft 431 kts 359°
2026-04-30 18:39 49.52902 11.49114 29550 ft 431 kts 359°
2026-04-30 18:39 49.55882 11.48590 30023 ft 429 kts 359°
2026-04-30 18:39 49.58816 11.48075 30490 ft 428 kts 359°
2026-04-30 18:40 49.61776 11.47559 30890 ft 426 kts 359°
2026-04-30 18:40 49.64730 11.47045 31273 ft 426 kts 359°
2026-04-30 18:40 49.67665 11.46531 31651 ft 425 kts 359°
2026-04-30 18:40 49.70604 11.46014 32053 ft 424 kts 359°
2026-04-30 18:41 49.73532 11.45495 32436 ft 423 kts 359°
2026-04-30 18:41 49.76456 11.44977 32814 ft 422 kts 359°
2026-04-30 18:41 49.79334 11.44467 33178 ft 421 kts 359°
2026-04-30 18:41 49.82241 11.43954 33551 ft 420 kts 358°
2026-04-30 18:42 49.85146 11.43442 33927 ft 419 kts 358°
2026-04-30 18:42 49.90938 11.42422 34658 ft 417 kts 358°
2026-04-30 18:42 49.93825 11.41907 34993 ft 416 kts 358°
2026-04-30 18:45 50.22393 11.36806 36424 ft 413 kts 357°
2026-04-30 18:45 50.25248 11.36285 36424 ft 413 kts 357°
2026-04-30 18:46 50.30934 11.35254 36428 ft 413 kts 358°
2026-04-30 18:46 50.36662 11.34227 36432 ft 413 kts 357°
2026-04-30 18:47 50.42357 11.33198 36434 ft 413 kts 357°
2026-04-30 18:47 50.48074 11.32156 36435 ft 413 kts 357°
2026-04-30 18:48 50.53791 11.31114 36432 ft 413 kts 357°
2026-04-30 18:48 50.59483 11.30077 36430 ft 414 kts 357°
2026-04-30 18:49 50.65213 11.29028 36436 ft 414 kts 357°
2026-04-30 18:49 50.70917 11.27980 36438 ft 415 kts 357°
2026-04-30 18:50 50.76669 11.26881 36435 ft 415 kts 356°
2026-04-30 18:50 50.82374 11.25782 36433 ft 415 kts 356°
2026-04-30 18:51 50.88133 11.24675 36434 ft 415 kts 356°
2026-04-30 18:51 50.93873 11.23570 36427 ft 415 kts 356°
2026-04-30 18:52 50.99585 11.22464 36428 ft 416 kts 356°
2026-04-30 18:52 51.05339 11.21361 36428 ft 416 kts 356°
2026-04-30 18:53 51.11059 11.20258 36431 ft 416 kts 356°
2026-04-30 18:53 51.16815 11.19141 36425 ft 416 kts 356°
2026-04-30 18:54 51.22569 11.18015 36427 ft 416 kts 356°
2026-04-30 18:54 51.28331 11.16886 36432 ft 416 kts 356°
2026-04-30 18:55 51.34057 11.15767 36433 ft 417 kts 356°
2026-04-30 18:55 51.42722 11.14057 36436 ft 418 kts 356°
2026-04-30 18:56 51.51356 11.12366 36433 ft 418 kts 356°
2026-04-30 18:57 51.60054 11.10650 36433 ft 419 kts 356°
2026-04-30 18:57 51.65812 11.09505 36428 ft 419 kts 355°
2026-04-30 18:58 51.74472 11.07782 36443 ft 407 kts 356°
2026-04-30 18:59 51.82719 11.06131 36442 ft 394 kts 356°
2026-04-30 19:00 51.93563 11.03922 36444 ft 394 kts 355°
2026-04-30 19:01 52.04408 11.01576 36438 ft 393 kts 355°
2026-04-30 19:02 52.11651 11.00027 36436 ft 394 kts 355°
2026-04-30 19:02 52.17098 10.98853 36220 ft 396 kts 355°
2026-04-30 19:03 52.22566 10.97680 35699 ft 396 kts 355°
2026-04-30 19:03 52.27956 10.96506 34909 ft 392 kts 355°
2026-04-30 19:04 52.33382 10.95334 33902 ft 391 kts 355°
2026-04-30 19:04 52.38758 10.94174 32974 ft 386 kts 355°
2026-04-30 19:05 52.44017 10.93036 32048 ft 380 kts 355°
2026-04-30 19:05 52.49218 10.91897 31162 ft 374 kts 355°
2026-04-30 19:06 52.54338 10.90789 30272 ft 368 kts 355°
2026-04-30 19:06 52.56870 10.90236 29856 ft 364 kts 355°
2026-04-30 19:06 52.61872 10.89132 29046 ft 360 kts 355°
2026-04-30 19:07 52.66776 10.88047 28264 ft 355 kts 355°
2026-04-30 19:07 52.69221 10.87511 27865 ft 353 kts 355°
2026-04-30 19:08 52.74086 10.86445 27052 ft 349 kts 355°
2026-04-30 19:08 52.78802 10.85395 26239 ft 345 kts 355°
2026-04-30 19:08 52.81197 10.84863 25930 ft 355 kts 355°
2026-04-30 19:09 52.86308 10.83771 25316 ft 379 kts 356°
2026-04-30 19:09 52.88932 10.83239 24824 ft 378 kts 356°
2026-04-30 19:09 52.91529 10.82716 24357 ft 375 kts 356°
2026-04-30 19:10 52.96691 10.81680 23323 ft 370 kts 356°
2026-04-30 19:10 53.01779 10.80650 22243 ft 365 kts 356°
2026-04-30 19:11 53.04291 10.80134 21743 ft 362 kts 356°
2026-04-30 19:11 53.09231 10.79115 20720 ft 357 kts 356°
2026-04-30 19:11 53.11688 10.78605 20227 ft 355 kts 356°
2026-04-30 19:12 53.14135 10.78098 19740 ft 353 kts 356°
2026-04-30 19:12 53.16574 10.77597 19260 ft 351 kts 357°
2026-04-30 19:12 53.19002 10.77100 18789 ft 350 kts 357°
2026-04-30 19:13 53.23807 10.76120 17736 ft 348 kts 356°
2026-04-30 19:13 53.28608 10.75124 16696 ft 346 kts 356°
2026-04-30 19:13 53.30994 10.74628 16201 ft 345 kts 356°
2026-04-30 19:14 53.33376 10.74135 15698 ft 344 kts 356°
2026-04-30 19:14 53.35746 10.73643 15210 ft 343 kts 356°
2026-04-30 19:14 53.38084 10.73156 14733 ft 342 kts 356°
2026-04-30 19:14 53.40450 10.72664 14260 ft 341 kts 357°
2026-04-30 19:15 53.42799 10.72178 13874 ft 336 kts 356°
2026-04-30 19:15 53.47307 10.71231 13343 ft 313 kts 356°
2026-04-30 19:15 53.49430 10.70779 13080 ft 303 kts 357°
2026-04-30 19:16 53.51508 10.70342 12825 ft 298 kts 357°
2026-04-30 19:16 53.53556 10.70055 12567 ft 291 kts
2026-04-30 19:16 53.57327 10.72023 11916 ft 282 kts 24°
2026-04-30 19:17 53.59150 10.73233 11561 ft 281 kts 25°
2026-04-30 19:17 53.62754 10.75648 11456 ft 281 kts 25°
2026-04-30 19:17 53.64578 10.76877 11457 ft 281 kts 25°
2026-04-30 19:18 53.67713 10.78008 11452 ft 278 kts 355°
2026-04-30 19:18 53.69999 10.76220 11460 ft 269 kts 327°
2026-04-30 19:18 53.71459 10.74279 11462 ft 267 kts 325°
2026-04-30 19:19 53.72899 10.72297 11457 ft 267 kts 324°
2026-04-30 19:19 53.74340 10.70306 11461 ft 266 kts 324°
2026-04-30 19:19 53.77173 10.66328 11461 ft 268 kts 318°
2026-04-30 19:20 53.78148 10.63626 11462 ft 275 kts 288°
2026-04-30 19:20 53.78270 10.60410 11457 ft 278 kts 259°
2026-04-30 19:20 53.76478 10.54637 11465 ft 279 kts 235°
2026-04-30 19:21 53.75391 10.51922 11460 ft 279 kts 234°
2026-04-30 19:21 53.73226 10.46554 11456 ft 279 kts 234°
2026-04-30 19:22 53.71034 10.41133 11456 ft 279 kts 234°
2026-04-30 19:22 53.67771 10.33053 10828 ft 275 kts 234°
2026-04-30 19:23 53.64569 10.25127 9947 ft 271 kts 234°
2026-04-30 19:24 53.62461 10.19891 9304 ft 268 kts 234°
2026-04-30 19:24 53.61434 10.17331 8981 ft 266 kts 234°
2026-04-30 19:24 53.59370 10.12171 8325 ft 264 kts 234°
2026-04-30 19:25 53.56248 10.04694 7350 ft 258 kts 230°
2026-04-30 19:26 53.54031 9.99963 6708 ft 256 kts 229°
2026-04-30 19:26 53.51842 9.95298 6059 ft 252 kts 229°
2026-04-30 19:26 53.50761 9.93002 5741 ft 250 kts 229°
2026-04-30 19:27 53.48632 9.88489 5121 ft 245 kts 229°
2026-04-30 19:27 53.46519 9.84033 5012 ft 244 kts 229°
2026-04-30 19:28 53.45454 9.81788 5010 ft 244 kts 229°
2026-04-30 19:28 53.43346 9.77345 5010 ft 244 kts 229°
2026-04-30 19:29 53.41230 9.72874 5011 ft 244 kts 229°
2026-04-30 19:29 53.40168 9.70634 5010 ft 244 kts 229°
2026-04-30 19:30 53.37022 9.63950 5010 ft 245 kts 234°
2026-04-30 19:30 53.36757 9.58458 5009 ft 248 kts 298°
2026-04-30 19:31 53.39416 9.55310 5011 ft 239 kts 359°
2026-04-30 19:31 53.41023 9.55687 5008 ft 232 kts 27°
2026-04-30 19:31 53.43319 9.59267 5012 ft 227 kts 52°
2026-04-30 19:32 53.44326 9.61277 5012 ft 227 kts 52°
2026-04-30 19:32 53.45344 9.63304 5001 ft 227 kts 52°
2026-04-30 19:32 53.46362 9.65334 4794 ft 227 kts 52°
2026-04-30 19:32 53.47387 9.67379 4508 ft 227 kts 52°
2026-04-30 19:33 53.48400 9.69401 4205 ft 226 kts 52°
2026-04-30 19:33 53.49412 9.71426 3891 ft 226 kts 52°
2026-04-30 19:33 53.50420 9.73442 3596 ft 225 kts 52°
2026-04-30 19:33 53.51401 9.75404 3297 ft 217 kts 52°
2026-04-30 19:34 53.52351 9.77308 2997 ft 209 kts 52°
2026-04-30 19:34 53.53273 9.79155 2729 ft 202 kts 52°
2026-04-30 19:34 53.55070 9.82763 2179 ft 195 kts 52°
2026-04-30 19:35 53.55915 9.84460 1943 ft 183 kts 52°
2026-04-30 19:35 53.56699 9.86036 1701 ft 167 kts 52°
2026-04-30 19:35 53.57399 9.87442 1476 ft 148 kts 52°
2026-04-30 19:35 53.58031 9.88716 1280 ft 138 kts 52°
2026-04-30 19:36 53.58635 9.89932 1099 ft 134 kts 52°
2026-04-30 19:36 53.59223 9.91119 930 ft 131 kts 52°
2026-04-30 19:36 53.60392 9.93516 575 ft 133 kts 51°
2026-04-30 19:37 53.60982 9.94685 391 ft 133 kts 52°
2026-04-30 19:37 53.61580 9.95881 211 ft 132 kts 51°
2026-04-30 19:37 53.62165 9.97063 46 ft 128 kts 52°
2026-04-30 19:37 53.62647 9.98042 42 ft 85 kts 52°
2026-04-30 19:38 53.62950 9.98648 45 ft 59 kts 49°
2026-04-30 19:38 53.63092 9.99075 46 ft 38 kts 86°
2026-04-30 19:38 53.63084 9.99315 43 ft 9 kts 83°
2026-04-30 19:38 53.63089 9.99351 47 ft 0 kts 75°
2026-04-30 19:39 53.63097 9.99387 47 ft 12 kts 68°
2026-04-30 19:39 53.63169 9.99562 46 ft 21 kts 52°
2026-04-30 19:39 53.63226 9.99684 48 ft 4 kts 51°
2026-04-30 19:40 53.63228 9.99686 48 ft 0 kts 51°
2026-04-30 19:40 53.63228 9.99687 48 ft 1 kts 51°
2026-04-30 19:40 53.63231 9.99731 48 ft 3 kts 69°
2026-04-30 19:40 53.63272 9.99761 48 ft 16 kts 32°
2026-04-30 19:41 53.63369 9.99953 48 ft 23 kts 47°
2026-04-30 19:41 53.63418 10.00148 48 ft 17 kts 124°
2026-04-30 19:41 53.63318 10.00232 48 ft 18 kts 177°
2026-04-30 19:41 53.63207 10.00263 48 ft 8 kts 126°
2026-04-30 19:42 53.63203 10.00302 48 ft 0 kts 94°
2026-04-30 19:42 53.63205 10.00322 48 ft 7 kts 85°
2026-04-30 19:42 53.63206 10.00363 48 ft 0 kts 87°